#timestamp,LO_Frequency,Hit,StdDev 
1587124815.2,286046999.3,N
1587124835.1,286047000.9,N
1587124836.0,286047000.9,N
1587124855.8,286047002.6,N
1587124875.6,286047000.2,N
1587124895.5,286046998.2,N
1587124915.3,286046996.5,N
1587124935.1,286046998.9,N
1587124955.9,286046999.5,N
1587124975.7,286046996.7,N
1587124995.6,286046997.2,N
1587125015.4,286046998.0,N
1587125035.2,286046996.9,N
1587125055.1,286046999.4,N
1587125075.9,286046996.6,N
1587125095.7,286046997.1,N
1587125115.6,286046995.7,N
1587125135.4,286046995.4,N
1587125155.3,286046995.1,N
1587125175.1,286046995.3,N
1587125176.0,286046995.3,N
1587125195.8,286046995.4,N
1587125215.7,286046995.8,N
1587125235.5,286046995.4,N
1587125255.4,286046995.9,N
1587125275.2,286046996.2,N
1587125295.0,286046995.5,N
1587125295.9,286046995.5,N
1587125315.8,286046996.2,N
1587125335.6,286046995.2,N
1587125355.5,286046997.4,N
1587125375.3,286046997.0,N
1587125395.1,286046997.4,N
1587125415.9,286046995.4,N
1587125435.7,286046998.0,N
1587125455.6,286046995.1,Y
1587125475.4,286047000.9,P
1587125495.2,286046999.9,N
1587125515.1,286047000.1,N
1587125516.0,286047000.1,N
1587125535.8,286047002.3,N
1587125555.7,286047001.9,N
1587125575.5,286047001.8,N
1587125595.3,286047001.7,N
1587125615.2,286047002.5,N
1587125635.0,286047004.4,N
1587125635.9,286047004.4,N
1587125655.7,286047004.3,N
1587125675.6,286047001.7,N
1587125695.4,286047001.9,N
1587125715.3,286047002.8,N
1587125735.1,286047002.6,N
1587125736.0,286047002.6,N
1587125755.8,286047002.6,N
1587125775.7,286047001.0,N
1587125795.5,286046998.5,N
1587125815.4,286046998.2,N
1587125835.2,286046998.1,N
1587125855.0,286047000.7,N
1587125855.9,286047000.7,N
1587125875.8,286047002.4,N
1587125895.6,286047000.5,N
1587125915.5,286046999.9,N
1587125935.3,286047002.4,N
1587125955.1,286047002.0,N
1587125975.9,286046999.9,N
1587125995.7,286047000.6,N
1587126015.6,286047000.4,N
1587126035.4,286047001.1,N
1587126055.2,286047000.0,N
1587126075.1,286047000.8,N
1587126076.0,286047000.8,N
1587126095.8,286047002.3,N
1587126115.6,286047001.0,N
1587126135.5,286046998.2,N
1587126155.3,286046998.6,N
1587126175.2,286046998.6,N
1587126195.9,286047001.1,N
1587126215.7,286046998.7,N
1587126235.6,286046998.8,N
1587126255.4,286046998.7,N
1587126275.3,286046998.2,N
1587126295.1,286047000.8,N
1587126296.0,286047000.8,N
1587126315.8,286047001.1,N
1587126335.7,286047000.0,N
1587126355.5,286047000.2,N
1587126375.3,286047001.1,N
1587126395.2,286047001.1,N
1587126415.0,286047000.9,N
1587126415.9,286047000.9,N
1587126435.8,286046998.2,N
1587126455.6,286046999.0,N
1587126475.4,286046998.5,N
1587126495.3,286046998.5,N
1587126515.1,286046998.1,N
1587126535.9,286047001.0,N
1587126555.7,286047000.6,N
1587126575.5,286047000.1,N
1587126595.4,286047000.1,N
1587126615.2,286046999.8,N
1587126635.0,286047000.2,N
1587126635.9,286047000.2,N
1587126655.8,286047002.8,N
1587126675.6,286047000.2,N
1587126695.5,286047002.4,N
1587126715.3,286047002.6,N
1587126735.1,286047000.4,N
1587126785.9,286047000.9,E
1587126795.8,286046998.9,N
1587126815.7,286046998.8,P
1587126835.5,286047000.9,P
1587126855.3,286047000.8,N
1587126875.2,286047000.5,N
1587126895.0,286047001.2,N
1587126895.9,286047001.2,N
1587126915.8,286047001.0,N
1587126935.6,286046998.9,N
1587126955.4,286046999.5,N
1587126975.3,286046998.8,N
1587126995.1,286046999.4,N
1587127015.9,286046996.6,Y
1587127035.7,286046998.3,P
1587127055.5,286046998.2,N
1587127075.4,286046998.9,N
1587127095.2,286047001.2,N
1587127115.0,286047000.0,N
1587127115.9,286047000.0,N
1587127135.8,286047000.2,N
1587127155.6,286047000.2,N
1587127175.5,286047002.8,N
1587127195.3,286047000.6,N
1587127215.1,286046998.4,N
1587127235.9,286047001.2,N
1587127255.7,286046999.3,N
1587127275.6,286046999.1,N
1587127295.4,286046998.8,N
1587127315.2,286046998.4,N
1587127335.1,286046999.3,N
1587127366.0,286047000.3,E
1587127375.0,286047000.6,N
1587127375.9,286047000.6,P
1587127395.8,286046999.9,P
1587127415.6,286046999.7,N
1587127435.4,286046999.8,N
1587127455.3,286046998.2,Y
1587127475.1,286046998.3,P
1587127495.9,286046998.2,N
1587127515.7,286047002.7,P
1587127535.5,286046998.6,N
1587127555.4,286046999.2,N
1587127575.2,286046996.9,N
1587127595.1,286046999.1,N
1587127596.0,286046999.1,N
1587127615.8,286046998.4,N
1587127635.6,286046998.3,N
1587127655.5,286047000.5,N
1587127675.3,286046999.8,N
1587127695.2,286047001.2,N
1587127715.9,286046999.3,N
1587127735.7,286046997.4,N
1587127755.6,286046998.0,N
1587127775.4,286046997.5,N
1587127795.2,286046996.6,N
1587127815.1,286046999.5,N
1587127816.0,286046999.5,N
1587127835.8,286046997.3,N
1587127855.7,286046998.6,N
1587127875.5,286046998.7,N
1587127895.3,286046999.3,N
1587127915.2,286047000.7,N
1587127935.0,286047001.1,N
1587127935.9,286047001.1,N
1587127955.8,286047001.2,N
1587127975.6,286046998.5,N
1587127995.4,286046998.3,N
1587128015.3,286046998.7,N
1587128035.1,286047001.2,N
1587128055.8,286047001.2,N
1587128075.7,286047001.0,N
1587128095.5,286046998.6,N
1587128115.4,286047001.2,N
1587128135.2,286046998.6,N
1587128155.0,286047001.2,N
1587128155.9,286047001.2,N
1587128175.8,286046998.1,N
1587128195.6,286047000.6,N
1587128215.5,286046999.7,N
1587128235.3,286046998.7,N
1587128255.1,286047000.7,N
1587128275.9,286047000.9,N
1587128295.7,286046998.1,N
1587128315.5,286047000.8,N
1587128335.4,286047001.6,N
1587128355.2,286047000.2,N
1587128375.1,286047000.1,N
1587128376.0,286047000.1,N
1587128395.8,286047001.1,N
